Time,TemperatureF,DewpointF,PressureIn,WindDirection,WindDirectionDegrees,WindSpeedMPH,WindSpeedGustMPH,Humidity,HourlyPrecipIn,Conditions,Clouds,dailyrainin,SoftwareType,DateUTC
2013-07-27 00:00:00,61.4,58.7,30.04,South,173,0.0,0.0,91,0.00,,,0.00,Wunderground v.1.15,2013-07-27 04:00:00,
2013-07-27 00:02:00,61.4,58.7,30.04,South,173,0.0,0.0,91,0.00,,,0.00,Wunderground v.1.15,2013-07-27 04:02:00,
2013-07-27 00:04:00,61.4,58.7,30.04,South,173,0.0,0.0,91,0.00,,,0.00,Wunderground v.1.15,2013-07-27 04:04:00,
2013-07-27 00:05:00,61.4,58.7,30.05,South,173,0.0,0.0,91,0.00,,,0.00,Wunderground v.1.15,2013-07-27 04:05:00,
2013-07-27 00:06:00,61.4,58.7,30.04,South,173,0.0,0.0,91,0.00,,,0.00,Wunderground v.1.15,2013-07-27 04:06:00,
2013-07-27 00:12:00,61.4,58.7,30.05,South,173,0.0,0.0,91,0.00,,,0.00,Wunderground v.1.15,2013-07-27 04:12:00,
2013-07-27 00:18:00,61.5,58.5,30.05,South,173,0.0,0.0,90,0.00,,,0.00,Wunderground v.1.15,2013-07-27 04:18:00,
2013-07-27 00:24:00,61.5,58.5,30.04,South,173,0.0,0.0,90,0.00,,,0.00,Wunderground v.1.15,2013-07-27 04:24:00,
2013-07-27 00:30:00,61.5,58.5,30.04,South,173,0.0,0.0,90,0.00,,,0.00,Wunderground v.1.15,2013-07-27 04:30:00,
2013-07-27 00:35:00,61.5,58.2,30.04,South,173,0.0,0.0,89,0.00,,,0.00,Wunderground v.1.15,2013-07-27 04:35:00,
2013-07-27 00:41:00,61.6,58.3,30.04,South,173,0.0,0.0,89,0.00,,,0.00,Wunderground v.1.15,2013-07-27 04:41:00,
2013-07-27 00:47:00,61.7,58.4,30.03,South,173,0.0,0.0,89,0.00,,,0.00,Wunderground v.1.15,2013-07-27 04:47:00,
2013-07-27 00:53:00,61.7,58.4,30.04,South,173,0.0,0.0,89,0.00,,,0.00,Wunderground v.1.15,2013-07-27 04:53:00,
2013-07-27 00:59:00,61.8,58.5,30.03,South,173,0.0,0.0,89,0.00,,,0.00,Wunderground v.1.15,2013-07-27 04:59:00,
2013-07-27 01:05:00,61.9,58.6,30.03,South,173,0.0,1.0,89,0.00,,,0.00,Wunderground v.1.15,2013-07-27 05:05:00,
2013-07-27 01:11:00,61.9,58.6,30.03,South,173,0.0,1.0,89,0.00,,,0.00,Wunderground v.1.15,2013-07-27 05:11:00,
2013-07-27 01:16:00,62.0,59.0,30.03,South,173,0.0,1.0,90,0.00,,,0.00,Wunderground v.1.15,2013-07-27 05:16:00,
2013-07-27 01:22:00,62.1,59.1,30.03,South,173,0.0,1.0,90,0.00,,,0.00,Wunderground v.1.15,2013-07-27 05:22:00,
2013-07-27 01:28:00,62.2,59.2,30.03,South,173,0.0,1.0,90,0.00,,,0.00,Wunderground v.1.15,2013-07-27 05:28:00,
2013-07-27 01:34:00,62.2,59.2,30.03,South,173,0.0,1.0,90,0.00,,,0.00,Wunderground v.1.15,2013-07-27 05:34:00,
2013-07-27 01:40:00,62.2,59.2,30.03,South,173,0.0,1.0,90,0.00,,,0.00,Wunderground v.1.15,2013-07-27 05:40:00,
2013-07-27 01:46:00,62.2,58.9,30.03,South,173,0.0,1.0,89,0.00,,,0.00,Wunderground v.1.15,2013-07-27 05:46:00,
2013-07-27 01:52:00,62.2,58.9,30.02,South,173,0.0,1.0,89,0.00,,,0.00,Wunderground v.1.15,2013-07-27 05:52:00,
2013-07-27 01:58:00,62.2,58.9,30.02,South,173,0.0,1.0,89,0.00,,,0.00,Wunderground v.1.15,2013-07-27 05:58:00,
2013-07-27 02:04:00,62.3,59.0,30.01,South,173,0.0,1.0,89,0.00,,,0.00,Wunderground v.1.15,2013-07-27 06:04:00,
2013-07-27 02:10:00,62.3,58.7,30.01,South,173,0.0,1.0,88,0.00,,,0.00,Wunderground v.1.15,2013-07-27 06:10:00,
2013-07-27 02:15:00,62.4,58.8,30.01,South,173,0.0,1.0,88,0.00,,,0.00,Wunderground v.1.15,2013-07-27 06:15:00,
2013-07-27 02:21:00,62.6,59.0,30.01,South,173,0.0,1.0,88,0.00,,,0.00,Wunderground v.1.15,2013-07-27 06:21:00,
2013-07-27 02:27:00,62.8,58.9,30.00,South,173,0.0,1.0,87,0.00,,,0.00,Wunderground v.1.15,2013-07-27 06:27:00,
2013-07-27 02:32:00,62.9,59.0,30.00,South,173,0.0,1.0,87,0.00,,,0.00,Wunderground v.1.15,2013-07-27 06:32:00,
2013-07-27 02:38:00,62.9,59.0,30.00,South,173,0.0,1.0,87,0.00,,,0.00,Wunderground v.1.15,2013-07-27 06:38:00,
2013-07-27 02:44:00,63.0,59.1,30.00,South,173,0.0,1.0,87,0.00,,,0.00,Wunderground v.1.15,2013-07-27 06:44:00,
2013-07-27 02:49:00,63.1,59.2,30.00,South,173,0.0,1.0,87,0.00,,,0.00,Wunderground v.1.15,2013-07-27 06:49:00,
2013-07-27 02:55:00,63.1,59.2,30.00,South,173,0.0,1.0,87,0.00,,,0.00,Wunderground v.1.15,2013-07-27 06:55:00,
2013-07-27 03:01:00,63.1,59.2,30.00,South,173,0.0,1.0,87,0.00,,,0.00,Wunderground v.1.15,2013-07-27 07:01:00,
2013-07-27 03:06:00,63.2,59.6,30.00,South,173,0.0,1.0,88,0.00,,,0.00,Wunderground v.1.15,2013-07-27 07:06:00,
2013-07-27 03:12:00,63.3,59.4,30.00,South,173,0.0,1.0,87,0.00,,,0.00,Wunderground v.1.15,2013-07-27 07:12:00,
2013-07-27 03:18:00,63.4,59.5,29.99,South,173,0.0,1.0,87,0.00,,,0.00,Wunderground v.1.15,2013-07-27 07:18:00,
2013-07-27 03:24:00,63.4,59.5,29.99,South,173,0.0,1.0,87,0.00,,,0.00,Wunderground v.1.15,2013-07-27 07:24:00,
2013-07-27 03:30:00,63.5,59.6,29.99,South,173,0.0,1.0,87,0.00,,,0.00,Wunderground v.1.15,2013-07-27 07:30:00,
2013-07-27 03:36:00,63.4,59.5,29.99,South,173,0.0,1.0,87,0.00,,,0.00,Wunderground v.1.15,2013-07-27 07:36:00,
2013-07-27 03:42:00,63.4,59.8,29.99,South,173,0.0,1.0,88,0.00,,,0.00,Wunderground v.1.15,2013-07-27 07:42:00,
2013-07-27 03:48:00,63.3,59.7,29.99,South,173,0.0,1.0,88,0.00,,,0.00,Wunderground v.1.15,2013-07-27 07:48:00,
2013-07-27 03:54:00,63.2,59.6,29.99,South,173,0.0,1.0,88,0.00,,,0.00,Wunderground v.1.15,2013-07-27 07:54:00,
2013-07-27 03:59:00,63.1,59.5,29.99,South,173,0.0,1.0,88,0.00,,,0.00,Wunderground v.1.15,2013-07-27 07:59:00,
2013-07-27 04:05:00,63.0,59.4,29.99,South,173,0.0,1.0,88,0.00,,,0.00,Wunderground v.1.15,2013-07-27 08:05:00,
2013-07-27 04:11:00,62.8,59.2,29.99,South,173,0.0,1.0,88,0.00,,,0.00,Wunderground v.1.15,2013-07-27 08:11:00,
2013-07-27 04:18:00,62.7,59.1,29.98,South,173,0.0,1.0,88,0.00,,,0.00,Wunderground v.1.15,2013-07-27 08:18:00,
2013-07-27 04:23:00,62.6,59.3,29.98,South,173,0.0,1.0,89,0.00,,,0.00,Wunderground v.1.15,2013-07-27 08:23:00,
2013-07-27 04:29:00,62.5,59.2,29.98,South,173,0.0,1.0,89,0.00,,,0.00,Wunderground v.1.15,2013-07-27 08:29:00,
2013-07-27 04:35:00,62.4,59.1,29.98,South,173,0.0,1.0,89,0.00,,,0.00,Wunderground v.1.15,2013-07-27 08:35:00,
2013-07-27 04:41:00,62.3,59.3,29.98,South,173,0.0,1.0,90,0.00,,,0.00,Wunderground v.1.15,2013-07-27 08:41:00,
2013-07-27 04:46:00,62.3,59.3,29.98,South,173,0.0,1.0,90,0.00,,,0.00,Wunderground v.1.15,2013-07-27 08:46:00,
2013-07-27 04:51:00,62.2,59.2,29.98,South,173,0.0,1.0,90,0.00,,,0.00,Wunderground v.1.15,2013-07-27 08:51:00,
2013-07-27 04:57:00,62.3,59.3,29.98,South,173,0.0,1.0,90,0.00,,,0.00,Wunderground v.1.15,2013-07-27 08:57:00,
2013-07-27 05:03:00,62.2,59.2,29.98,South,173,0.0,1.0,90,0.00,,,0.00,Wunderground v.1.15,2013-07-27 09:03:00,
2013-07-27 05:08:00,62.3,59.3,29.98,South,173,0.0,1.0,90,0.00,,,0.00,Wunderground v.1.15,2013-07-27 09:08:00,
2013-07-27 05:14:00,62.3,59.3,29.98,South,173,0.0,1.0,90,0.00,,,0.00,Wunderground v.1.15,2013-07-27 09:14:00,
2013-07-27 05:20:00,62.3,59.3,29.98,South,173,0.0,1.0,90,0.00,,,0.00,Wunderground v.1.15,2013-07-27 09:20:00,
2013-07-27 05:26:00,62.3,59.3,29.98,South,173,0.0,1.0,90,0.00,,,0.00,Wunderground v.1.15,2013-07-27 09:26:00,
2013-07-27 05:32:00,62.3,59.3,29.98,South,173,0.0,1.0,90,0.00,,,0.00,Wunderground v.1.15,2013-07-27 09:32:00,
2013-07-27 05:38:00,62.3,59.3,29.98,South,173,0.0,1.0,90,0.00,,,0.00,Wunderground v.1.15,2013-07-27 09:38:00,
2013-07-27 05:44:00,62.4,59.4,29.98,South,173,0.0,1.0,90,0.00,,,0.00,Wunderground v.1.15,2013-07-27 09:44:00,
2013-07-27 05:49:00,62.4,59.4,29.98,South,173,0.0,1.0,90,0.00,,,0.00,Wunderground v.1.15,2013-07-27 09:49:00,
2013-07-27 05:55:00,62.4,59.4,29.98,South,173,0.0,1.0,90,0.00,,,0.00,Wunderground v.1.15,2013-07-27 09:55:00,
2013-07-27 06:00:00,62.5,59.5,29.98,South,173,0.0,0.0,90,0.00,,,0.00,Wunderground v.1.15,2013-07-27 10:00:00,
2013-07-27 06:06:00,62.6,59.6,29.98,South,173,0.0,0.0,90,0.00,,,0.00,Wunderground v.1.15,2013-07-27 10:06:00,
2013-07-27 06:12:00,62.7,59.7,29.98,South,173,0.0,1.0,90,0.00,,,0.00,Wunderground v.1.15,2013-07-27 10:12:00,
2013-07-27 06:17:00,62.7,59.7,29.98,South,173,0.0,1.0,90,0.00,,,0.00,Wunderground v.1.15,2013-07-27 10:17:00,
2013-07-27 06:23:00,62.8,59.8,29.98,South,173,0.0,0.0,90,0.00,,,0.00,Wunderground v.1.15,2013-07-27 10:23:00,
2013-07-27 06:29:00,62.9,59.9,29.98,South,173,0.0,0.0,90,0.00,,,0.00,Wunderground v.1.15,2013-07-27 10:29:00,
2013-07-27 06:34:00,63.0,60.0,29.98,South,173,0.0,0.0,90,0.00,,,0.00,Wunderground v.1.15,2013-07-27 10:34:00,
2013-07-27 06:40:00,63.1,60.1,29.98,South,173,0.0,0.0,90,0.00,,,0.00,Wunderground v.1.15,2013-07-27 10:40:00,
2013-07-27 06:46:00,63.2,60.2,29.98,South,173,0.0,0.0,90,0.00,,,0.00,Wunderground v.1.15,2013-07-27 10:46:00,
2013-07-27 06:52:00,63.3,60.3,29.98,South,173,0.0,0.0,90,0.00,,,0.00,Wunderground v.1.15,2013-07-27 10:52:00,
2013-07-27 06:58:00,63.5,60.5,29.98,South,173,0.0,0.0,90,0.00,,,0.00,Wunderground v.1.15,2013-07-27 10:58:00,
2013-07-27 07:04:00,63.5,60.5,29.98,South,173,0.0,1.0,90,0.00,,,0.00,Wunderground v.1.15,2013-07-27 11:04:00,
2013-07-27 07:10:00,63.7,60.4,29.98,South,173,0.0,1.0,89,0.00,,,0.00,Wunderground v.1.15,2013-07-27 11:10:00,
2013-07-27 07:16:00,63.7,60.4,29.99,South,173,0.0,1.0,89,0.00,,,0.00,Wunderground v.1.15,2013-07-27 11:16:00,
2013-07-27 07:21:00,63.8,60.5,29.99,WSW,252,1.0,4.0,89,0.00,,,0.00,Wunderground v.1.15,2013-07-27 11:21:00,
2013-07-27 07:27:00,63.8,60.5,29.99,WSW,252,2.0,4.0,89,0.00,,,0.00,Wunderground v.1.15,2013-07-27 11:27:00,
2013-07-27 07:33:00,63.9,60.6,29.99,SW,232,1.0,2.0,89,0.00,,,0.00,Wunderground v.1.15,2013-07-27 11:33:00,
2013-07-27 07:38:00,63.9,60.6,29.99,SSW,200,2.0,4.0,89,0.00,,,0.00,Wunderground v.1.15,2013-07-27 11:38:00,
2013-07-27 07:44:00,64.0,60.7,29.99,SSW,192,2.0,3.0,89,0.00,,,0.00,Wunderground v.1.15,2013-07-27 11:44:00,
2013-07-27 07:50:00,64.1,60.8,29.99,SW,235,2.0,2.0,89,0.00,,,0.00,Wunderground v.1.15,2013-07-27 11:50:00,
2013-07-27 07:56:00,64.1,60.8,29.99,SW,227,1.0,2.0,89,0.00,,,0.00,Wunderground v.1.15,2013-07-27 11:56:00,
2013-07-27 08:02:00,64.2,60.9,29.99,SW,227,1.0,1.0,89,0.00,,,0.00,Wunderground v.1.15,2013-07-27 12:02:00,
2013-07-27 08:08:00,64.3,61.0,29.99,SW,227,0.0,1.0,89,0.00,,,0.00,Wunderground v.1.15,2013-07-27 12:08:00,
2013-07-27 08:14:00,64.3,61.0,29.99,SW,227,0.0,1.0,89,0.00,,,0.00,Wunderground v.1.15,2013-07-27 12:14:00,
2013-07-27 08:19:00,64.4,61.1,29.99,SW,227,0.0,1.0,89,0.00,,,0.00,Wunderground v.1.15,2013-07-27 12:19:00,
2013-07-27 08:25:00,64.5,61.2,29.99,SW,227,0.0,1.0,89,0.00,,,0.00,Wunderground v.1.15,2013-07-27 12:25:00,
2013-07-27 08:31:00,64.6,61.3,29.98,SW,227,0.0,1.0,89,0.00,,,0.00,Wunderground v.1.15,2013-07-27 12:31:00,
2013-07-27 08:38:00,64.6,61.6,29.98,SW,227,0.0,1.0,90,0.00,,,0.00,Wunderground v.1.15,2013-07-27 12:38:00,
2013-07-27 08:44:00,64.7,61.7,29.98,SW,227,0.0,1.0,90,0.00,,,0.00,Wunderground v.1.15,2013-07-27 12:44:00,
2013-07-27 08:49:00,64.6,61.9,29.98,SW,227,0.0,1.0,91,0.00,,,0.00,Wunderground v.1.15,2013-07-27 12:49:00,
2013-07-27 08:55:00,64.6,61.9,29.97,SW,227,0.0,1.0,91,0.00,,,0.00,Wunderground v.1.15,2013-07-27 12:55:00,
2013-07-27 09:00:00,64.6,62.2,29.97,SW,227,0.0,0.0,92,0.00,,,0.01,Wunderground v.1.15,2013-07-27 13:00:00,
2013-07-27 09:06:00,64.6,62.2,29.98,SW,227,0.0,0.0,92,0.00,,,0.01,Wunderground v.1.15,2013-07-27 13:06:00,
2013-07-27 09:11:00,64.6,62.5,29.98,SW,227,0.0,0.0,93,0.00,,,0.01,Wunderground v.1.15,2013-07-27 13:11:00,
2013-07-27 09:18:00,64.7,62.6,29.98,SW,227,0.0,0.0,93,0.00,,,0.01,Wunderground v.1.15,2013-07-27 13:18:00,
2013-07-27 09:24:00,64.7,62.9,29.98,SW,227,0.0,0.0,94,0.00,,,0.01,Wunderground v.1.15,2013-07-27 13:24:00,
2013-07-27 09:30:00,64.7,62.9,29.98,SW,227,0.0,0.0,94,0.00,,,0.02,Wunderground v.1.15,2013-07-27 13:30:00,
2013-07-27 09:35:00,64.8,63.0,29.98,SW,227,0.0,0.0,94,0.00,,,0.02,Wunderground v.1.15,2013-07-27 13:35:00,
2013-07-27 09:41:00,64.7,62.9,29.99,SW,227,0.0,3.0,94,0.00,,,0.02,Wunderground v.1.15,2013-07-27 13:41:00,
2013-07-27 09:47:00,64.7,62.9,29.98,SW,226,1.0,3.0,94,0.00,,,0.02,Wunderground v.1.15,2013-07-27 13:47:00,
2013-07-27 09:53:00,64.7,62.9,29.99,SW,226,1.0,1.0,94,0.00,,,0.02,Wunderground v.1.15,2013-07-27 13:53:00,
2013-07-27 09:59:00,64.5,62.7,29.99,SW,223,2.0,3.0,94,0.00,,,0.02,Wunderground v.1.15,2013-07-27 13:59:00,
2013-07-27 10:05:00,64.4,62.6,29.99,SSW,200,3.0,4.0,94,0.00,,,0.02,Wunderground v.1.15,2013-07-27 14:05:00,
2013-07-27 10:11:00,64.4,62.6,29.99,SSW,202,2.0,3.0,94,0.00,,,0.02,Wunderground v.1.15,2013-07-27 14:11:00,
2013-07-27 10:17:00,64.4,62.6,29.99,SSW,202,2.0,3.0,94,0.00,,,0.02,Wunderground v.1.15,2013-07-27 14:17:00,
2013-07-27 10:23:00,64.4,62.6,29.99,SSW,201,1.0,2.0,94,0.00,,,0.03,Wunderground v.1.15,2013-07-27 14:23:00,
2013-07-27 10:29:00,64.4,62.9,29.99,SSW,201,0.0,2.0,95,0.06,,,0.04,Wunderground v.1.15,2013-07-27 14:29:00,
2013-07-27 10:34:00,64.5,63.0,29.99,SSW,201,0.0,2.0,95,0.06,,,0.04,Wunderground v.1.15,2013-07-27 14:34:00,
2013-07-27 10:40:00,64.6,63.1,29.98,SSW,201,0.0,2.0,95,0.05,,,0.04,Wunderground v.1.15,2013-07-27 14:40:00,
2013-07-27 10:46:00,64.7,63.2,29.99,SSW,201,0.0,2.0,95,0.00,,,0.04,Wunderground v.1.15,2013-07-27 14:46:00,
2013-07-27 10:52:00,64.8,63.3,29.98,SSW,200,0.0,2.0,95,0.00,,,0.04,Wunderground v.1.15,2013-07-27 14:52:00,
2013-07-27 10:57:00,64.7,63.2,29.98,SSW,196,1.0,5.0,95,0.00,,,0.05,Wunderground v.1.15,2013-07-27 14:57:00,
2013-07-27 11:03:00,64.4,62.6,29.98,SSW,193,3.0,5.0,94,0.00,,,0.05,Wunderground v.1.15,2013-07-27 15:03:00,
2013-07-27 11:09:00,64.3,62.5,29.98,South,184,3.0,5.0,94,0.07,,,0.06,Wunderground v.1.15,2013-07-27 15:09:00,
2013-07-27 11:15:00,64.3,62.5,29.98,SSW,200,3.0,6.0,94,0.06,,,0.06,Wunderground v.1.15,2013-07-27 15:15:00,
2013-07-27 11:21:00,64.2,62.4,29.98,South,180,3.0,3.0,94,0.04,,,0.06,Wunderground v.1.15,2013-07-27 15:21:00,
2013-07-27 11:27:00,63.9,61.8,29.98,SSW,196,3.0,11.0,93,0.00,,,0.07,Wunderground v.1.15,2013-07-27 15:27:00,
2013-07-27 11:33:00,63.8,61.7,29.98,SSE,149,4.0,4.0,93,0.07,,,0.08,Wunderground v.1.15,2013-07-27 15:33:00,
2013-07-27 11:39:00,63.5,61.4,29.98,SSE,167,5.0,8.0,93,0.07,,,0.08,Wunderground v.1.15,2013-07-27 15:39:00,
2013-07-27 11:44:00,63.3,61.2,29.97,South,174,4.0,5.0,93,0.05,,,0.08,Wunderground v.1.15,2013-07-27 15:44:00,
2013-07-27 11:49:00,63.2,61.1,29.97,SSE,167,2.0,2.0,93,0.00,,,0.08,Wunderground v.1.15,2013-07-27 15:49:00,
2013-07-27 11:55:00,63.1,61.0,29.97,ESE,109,2.0,3.0,93,0.00,,,0.08,Wunderground v.1.15,2013-07-27 15:55:00,
2013-07-27 12:00:00,63.1,61.3,29.97,South,183,2.0,6.0,94,0.00,,,0.08,Wunderground v.1.15,2013-07-27 16:00:00,
2013-07-27 12:05:00,63.1,61.3,29.97,South,182,1.0,6.0,94,0.00,,,0.09,Wunderground v.1.15,2013-07-27 16:05:00,
2013-07-27 12:11:00,63.1,61.3,29.97,SSW,195,1.0,2.0,94,0.00,,,0.09,Wunderground v.1.15,2013-07-27 16:11:00,
2013-07-27 12:17:00,63.2,61.7,29.96,South,191,1.0,2.0,95,0.00,,,0.09,Wunderground v.1.15,2013-07-27 16:17:00,
2013-07-27 12:23:00,63.4,61.9,29.96,SSE,165,1.0,3.0,95,0.00,,,0.09,Wunderground v.1.15,2013-07-27 16:23:00,
2013-07-27 12:28:00,63.6,62.1,29.96,SSE,167,1.0,3.0,95,0.00,,,0.10,Wunderground v.1.15,2013-07-27 16:28:00,
2013-07-27 12:34:00,63.7,62.5,29.96,SSE,164,1.0,3.0,96,0.00,,,0.10,Wunderground v.1.15,2013-07-27 16:34:00,
2013-07-27 12:40:00,63.7,62.5,29.96,South,171,2.0,2.0,96,0.05,,,0.11,Wunderground v.1.15,2013-07-27 16:40:00,
2013-07-27 12:46:00,63.8,62.6,29.95,SSE,163,1.0,5.0,96,0.05,,,0.11,Wunderground v.1.15,2013-07-27 16:46:00,
2013-07-27 12:52:00,63.9,62.7,29.95,SSE,167,1.0,2.0,96,0.04,,,0.11,Wunderground v.1.15,2013-07-27 16:52:00,
2013-07-27 12:58:00,64.0,62.8,29.95,South,174,1.0,2.0,96,0.00,,,0.11,Wunderground v.1.15,2013-07-27 16:58:00,
2013-07-27 13:04:00,64.0,62.5,29.95,SSE,167,2.0,12.0,95,0.00,,,0.11,Wunderground v.1.15,2013-07-27 17:04:00,
2013-07-27 13:09:00,64.1,62.9,29.95,South,181,3.0,3.0,96,0.00,,,0.12,Wunderground v.1.15,2013-07-27 17:09:00,
2013-07-27 13:15:00,64.2,62.7,29.95,SSW,205,3.0,12.0,95,0.00,,,0.12,Wunderground v.1.15,2013-07-27 17:15:00,
2013-07-27 13:21:00,64.4,62.9,29.95,South,180,3.0,12.0,95,0.00,,,0.12,Wunderground v.1.15,2013-07-27 17:21:00,
2013-07-27 13:27:00,64.5,63.0,29.95,South,185,2.0,12.0,95,0.04,,,0.13,Wunderground v.1.15,2013-07-27 17:27:00,
2013-07-27 13:32:00,64.7,63.2,29.95,SSW,208,3.0,12.0,95,0.04,,,0.13,Wunderground v.1.15,2013-07-27 17:32:00,
2013-07-27 13:38:00,65.0,63.5,29.95,South,188,4.0,12.0,95,0.04,,,0.13,Wunderground v.1.15,2013-07-27 17:38:00,
2013-07-27 13:44:00,65.2,63.7,29.95,South,180,3.0,12.0,95,0.00,,,0.13,Wunderground v.1.15,2013-07-27 17:44:00,
2013-07-27 13:50:00,65.4,63.9,29.94,South,184,2.0,12.0,95,0.00,,,0.13,Wunderground v.1.15,2013-07-27 17:50:00,
2013-07-27 13:55:00,65.6,64.4,29.94,South,182,3.0,12.0,96,0.00,,,0.13,Wunderground v.1.15,2013-07-27 17:55:00,
2013-07-27 14:03:00,65.7,64.2,29.95,SSE,165,4.0,12.0,95,0.00,,,0.13,Wunderground v.1.15,2013-07-27 18:03:00,
2013-07-27 14:08:00,65.7,63.9,29.94,South,188,5.0,17.0,94,0.00,,,0.13,Wunderground v.1.15,2013-07-27 18:08:00,
2013-07-27 14:14:00,65.8,64.0,29.94,South,186,5.0,12.0,94,0.00,,,0.13,Wunderground v.1.15,2013-07-27 18:14:00,
2013-07-27 14:20:00,65.8,64.0,29.94,South,173,4.0,4.0,94,0.00,,,0.13,Wunderground v.1.15,2013-07-27 18:20:00,
2013-07-27 14:26:00,65.9,64.1,29.93,South,185,3.0,12.0,94,0.00,,,0.14,Wunderground v.1.15,2013-07-27 18:26:00,
2013-07-27 14:31:00,65.9,64.1,29.93,South,187,3.0,12.0,94,0.00,,,0.14,Wunderground v.1.15,2013-07-27 18:31:00,
2013-07-27 14:37:00,65.8,63.7,29.93,SSW,192,4.0,12.0,93,0.00,,,0.14,Wunderground v.1.15,2013-07-27 18:37:00,
2013-07-27 14:43:00,65.8,63.7,29.93,SSW,194,5.0,12.0,93,0.00,,,0.14,Wunderground v.1.15,2013-07-27 18:43:00,
2013-07-27 14:49:00,65.9,64.1,29.93,South,169,4.0,12.0,94,0.00,,,0.14,Wunderground v.1.15,2013-07-27 18:49:00,
2013-07-27 14:55:00,65.9,64.1,29.93,South,188,2.0,12.0,94,0.00,,,0.14,Wunderground v.1.15,2013-07-27 18:55:00,
2013-07-27 15:00:00,66.0,64.2,29.92,ESE,107,2.0,3.0,94,0.00,,,0.14,Wunderground v.1.15,2013-07-27 19:00:00,
2013-07-27 15:06:00,66.1,64.3,29.92,South,182,2.0,4.0,94,0.00,,,0.14,Wunderground v.1.15,2013-07-27 19:06:00,
2013-07-27 15:11:00,66.2,64.1,29.92,SSE,164,2.0,4.0,93,0.00,,,0.14,Wunderground v.1.15,2013-07-27 19:11:00,
2013-07-27 15:17:00,66.1,63.7,29.92,SSW,195,3.0,6.0,92,0.00,,,0.14,Wunderground v.1.15,2013-07-27 19:17:00,
2013-07-27 15:23:00,65.9,63.5,29.92,SSW,199,4.0,4.0,92,0.00,,,0.14,Wunderground v.1.15,2013-07-27 19:23:00,
2013-07-27 15:29:00,65.7,63.3,29.92,South,175,3.0,5.0,92,0.00,,,0.14,Wunderground v.1.15,2013-07-27 19:29:00,
2013-07-27 15:35:00,65.6,63.5,29.91,South,178,2.0,3.0,93,0.00,,,0.15,Wunderground v.1.15,2013-07-27 19:35:00,
2013-07-27 15:41:00,65.7,63.6,29.91,SSE,166,1.0,2.0,93,0.00,,,0.15,Wunderground v.1.15,2013-07-27 19:41:00,
2013-07-27 15:47:00,65.9,64.1,29.90,SSE,158,1.0,2.0,94,0.00,,,0.15,Wunderground v.1.15,2013-07-27 19:47:00,
2013-07-27 15:53:00,65.8,63.7,29.90,SSW,192,2.0,5.0,93,0.00,,,0.15,Wunderground v.1.15,2013-07-27 19:53:00,
2013-07-27 15:54:00,65.8,63.7,29.90,South,182,2.0,5.0,93,0.00,,,0.15,Wunderground v.1.15,2013-07-27 19:54:00,
2013-07-27 16:01:00,65.8,63.7,29.90,South,190,2.0,15.0,93,0.00,,,0.15,Wunderground v.1.15,2013-07-27 20:01:00,
2013-07-27 16:06:00,65.9,63.8,29.90,South,182,2.0,15.0,93,0.00,,,0.15,Wunderground v.1.15,2013-07-27 20:06:00,
2013-07-27 16:12:00,66.2,64.1,29.90,South,186,3.0,15.0,93,0.00,,,0.15,Wunderground v.1.15,2013-07-27 20:12:00,
2013-07-27 16:18:00,66.4,64.0,29.90,SE,130,4.0,15.0,92,0.00,,,0.15,Wunderground v.1.15,2013-07-27 20:18:00,
2013-07-27 16:24:00,66.6,64.2,29.90,South,169,7.0,15.0,92,0.00,,,0.15,Wunderground v.1.15,2013-07-27 20:24:00,
2013-07-27 16:29:00,66.8,64.1,29.90,SSW,197,6.0,15.0,91,0.00,,,0.15,Wunderground v.1.15,2013-07-27 20:29:00,
2013-07-27 16:35:00,66.9,64.2,29.90,South,188,6.0,15.0,91,0.00,,,0.15,Wunderground v.1.15,2013-07-27 20:35:00,
2013-07-27 16:41:00,67.0,64.3,29.89,SW,215,5.0,10.0,91,0.00,,,0.15,Wunderground v.1.15,2013-07-27 20:41:00,
2013-07-27 16:47:00,67.0,64.3,29.90,SSW,201,5.0,15.0,91,0.00,,,0.15,Wunderground v.1.15,2013-07-27 20:47:00,
2013-07-27 16:52:00,66.9,63.9,29.90,South,181,5.0,15.0,90,0.00,,,0.15,Wunderground v.1.15,2013-07-27 20:52:00,
2013-07-27 16:58:00,66.8,63.8,29.89,South,190,6.0,15.0,90,0.00,,,0.15,Wunderground v.1.15,2013-07-27 20:58:00,
2013-07-27 17:04:00,66.9,63.9,29.89,SSW,198,6.0,15.0,90,0.00,,,0.15,Wunderground v.1.15,2013-07-27 21:04:00,
2013-07-27 17:10:00,67.1,64.1,29.89,SSW,196,4.0,4.0,90,0.00,,,0.15,Wunderground v.1.15,2013-07-27 21:10:00,
2013-07-27 17:15:00,67.2,64.2,29.89,South,188,4.0,15.0,90,0.00,,,0.15,Wunderground v.1.15,2013-07-27 21:15:00,
2013-07-27 17:23:00,67.4,64.0,29.88,South,189,6.0,15.0,89,0.00,,,0.15,Wunderground v.1.15,2013-07-27 21:23:00,
2013-07-27 17:28:00,67.7,64.3,29.88,SSE,164,6.0,15.0,89,0.00,,,0.15,Wunderground v.1.15,2013-07-27 21:28:00,
2013-07-27 17:33:00,67.9,64.2,29.88,South,183,5.0,15.0,88,0.00,,,0.15,Wunderground v.1.15,2013-07-27 21:33:00,
2013-07-27 17:39:00,68.0,64.3,29.88,SSW,207,5.0,15.0,88,0.00,,,0.15,Wunderground v.1.15,2013-07-27 21:39:00,
2013-07-27 17:45:00,68.1,64.7,29.89,South,182,4.0,15.0,89,0.00,,,0.15,Wunderground v.1.15,2013-07-27 21:45:00,
2013-07-27 17:51:00,68.2,64.5,29.88,SSE,150,3.0,15.0,88,0.00,,,0.15,Wunderground v.1.15,2013-07-27 21:51:00,
2013-07-27 17:58:00,68.5,64.8,29.88,SSE,150,6.0,15.0,88,0.00,,,0.15,Wunderground v.1.15,2013-07-27 21:58:00,
2013-07-27 18:03:00,68.8,65.1,29.88,South,190,6.0,13.0,88,0.00,,,0.15,Wunderground v.1.15,2013-07-27 22:03:00,
2013-07-27 18:09:00,69.0,65.0,29.88,South,172,5.0,13.0,87,0.00,,,0.15,Wunderground v.1.15,2013-07-27 22:09:00,
2013-07-27 18:14:00,69.1,65.1,29.88,South,180,4.0,6.0,87,0.00,,,0.15,Wunderground v.1.15,2013-07-27 22:14:00,
2013-07-27 18:20:00,69.2,64.8,29.88,South,176,4.0,4.0,86,0.00,,,0.15,Wunderground v.1.15,2013-07-27 22:20:00,
2013-07-27 18:25:00,69.4,65.4,29.87,SSE,159,3.0,5.0,87,0.00,,,0.15,Wunderground v.1.15,2013-07-27 22:25:00,
2013-07-27 18:31:00,69.3,65.3,29.87,South,180,3.0,3.0,87,0.00,,,0.15,Wunderground v.1.15,2013-07-27 22:31:00,
2013-07-27 18:36:00,69.0,65.0,29.87,South,182,3.0,7.0,87,0.00,,,0.15,Wunderground v.1.15,2013-07-27 22:36:00,
2013-07-27 18:42:00,68.7,65.0,29.87,South,177,3.0,6.0,88,0.00,,,0.15,Wunderground v.1.15,2013-07-27 22:42:00,
2013-07-27 18:48:00,68.5,64.8,29.87,SSW,192,4.0,7.0,88,0.00,,,0.15,Wunderground v.1.15,2013-07-27 22:48:00,
2013-07-27 18:54:00,68.3,64.6,29.87,SSW,200,5.0,12.0,88,0.00,,,0.15,Wunderground v.1.15,2013-07-27 22:54:00,
2013-07-27 18:59:00,68.3,64.9,29.87,South,181,4.0,4.0,89,0.00,,,0.15,Wunderground v.1.15,2013-07-27 22:59:00,
2013-07-27 19:05:00,68.4,65.0,29.87,South,188,3.0,14.0,89,0.00,,,0.15,Wunderground v.1.15,2013-07-27 23:05:00,
2013-07-27 19:11:00,68.5,65.1,29.87,SSW,200,3.0,14.0,89,0.00,,,0.15,Wunderground v.1.15,2013-07-27 23:11:00,
2013-07-27 19:17:00,68.5,65.1,29.88,SW,221,3.0,14.0,89,0.00,,,0.15,Wunderground v.1.15,2013-07-27 23:17:00,
2013-07-27 19:23:00,68.3,64.9,29.88,South,184,4.0,14.0,89,0.00,,,0.15,Wunderground v.1.15,2013-07-27 23:23:00,
2013-07-27 19:29:00,68.2,64.8,29.88,SW,232,4.0,14.0,89,0.00,,,0.15,Wunderground v.1.15,2013-07-27 23:29:00,
2013-07-27 19:35:00,68.1,64.7,29.88,South,180,3.0,14.0,89,0.00,,,0.15,Wunderground v.1.15,2013-07-27 23:35:00,
2013-07-27 19:41:00,68.0,64.6,29.88,SSW,198,4.0,14.0,89,0.00,,,0.15,Wunderground v.1.15,2013-07-27 23:41:00,
2013-07-27 19:46:00,68.2,64.8,29.88,South,187,4.0,14.0,89,0.00,,,0.15,Wunderground v.1.15,2013-07-27 23:46:00,
2013-07-27 19:52:00,68.3,64.6,29.88,SSW,192,5.0,14.0,88,0.00,,,0.15,Wunderground v.1.15,2013-07-27 23:52:00,
2013-07-27 19:58:00,68.3,64.6,29.88,SSW,196,5.0,14.0,88,0.00,,,0.15,Wunderground v.1.15,2013-07-27 23:58:00,
2013-07-27 20:04:00,68.1,64.4,29.88,SSW,194,6.0,14.0,88,0.00,,,0.15,Wunderground v.1.15,2013-07-28 00:04:00,
2013-07-27 20:10:00,67.9,64.2,29.88,SSW,194,6.0,6.0,88,0.00,,,0.15,Wunderground v.1.15,2013-07-28 00:10:00,
2013-07-27 20:16:00,67.6,63.9,29.88,SSW,200,5.0,14.0,88,0.00,,,0.15,Wunderground v.1.15,2013-07-28 00:16:00,
2013-07-27 20:23:00,67.4,64.0,29.88,South,186,5.0,14.0,89,0.00,,,0.15,Wunderground v.1.15,2013-07-28 00:23:00,
2013-07-27 20:28:00,67.1,63.7,29.88,SSE,168,3.0,14.0,89,0.00,,,0.15,Wunderground v.1.15,2013-07-28 00:28:00,
2013-07-27 20:34:00,66.9,63.6,29.88,South,186,4.0,14.0,89,0.00,,,0.15,Wunderground v.1.15,2013-07-28 00:34:00,
2013-07-27 20:40:00,66.7,63.7,29.88,South,178,2.0,14.0,90,0.00,,,0.15,Wunderground v.1.15,2013-07-28 00:40:00,
2013-07-27 20:46:00,66.5,63.5,29.88,South,175,2.0,14.0,90,0.00,,,0.15,Wunderground v.1.15,2013-07-28 00:46:00,
2013-07-27 20:51:00,66.3,63.6,29.88,South,191,2.0,14.0,91,0.00,,,0.15,Wunderground v.1.15,2013-07-28 00:51:00,
2013-07-27 20:57:00,66.2,63.8,29.88,SSW,194,2.0,14.0,92,0.00,,,0.15,Wunderground v.1.15,2013-07-28 00:57:00,
2013-07-27 21:02:00,66.1,63.7,29.89,SSW,205,2.0,3.0,92,0.00,,,0.15,Wunderground v.1.15,2013-07-28 01:02:00,
2013-07-27 21:08:00,66.1,63.7,29.89,South,180,2.0,3.0,92,0.00,,,0.15,Wunderground v.1.15,2013-07-28 01:08:00,
2013-07-27 21:14:00,66.1,63.7,29.89,South,185,2.0,6.0,92,0.00,,,0.15,Wunderground v.1.15,2013-07-28 01:14:00,
2013-07-27 21:20:00,66.1,64.0,29.89,South,189,2.0,2.0,93,0.00,,,0.15,Wunderground v.1.15,2013-07-28 01:20:00,
2013-07-27 21:26:00,66.0,63.9,29.89,South,186,2.0,3.0,93,0.00,,,0.15,Wunderground v.1.15,2013-07-28 01:26:00,
2013-07-27 21:33:00,65.9,63.8,29.89,SSE,164,1.0,1.0,93,0.00,,,0.15,Wunderground v.1.15,2013-07-28 01:33:00,
2013-07-27 21:38:00,65.7,63.6,29.90,South,186,1.0,3.0,93,0.00,,,0.15,Wunderground v.1.15,2013-07-28 01:38:00,
2013-07-27 21:43:00,65.6,63.5,29.90,South,174,1.0,4.0,93,0.00,,,0.15,Wunderground v.1.15,2013-07-28 01:43:00,
2013-07-27 21:49:00,65.5,63.4,29.90,South,188,1.0,1.0,93,0.00,,,0.15,Wunderground v.1.15,2013-07-28 01:49:00,
2013-07-27 21:54:00,65.5,63.7,29.90,South,182,1.0,2.0,94,0.00,,,0.15,Wunderground v.1.15,2013-07-28 01:54:00,
2013-07-27 22:00:00,65.4,63.6,29.90,South,188,1.0,9.0,94,0.00,,,0.15,Wunderground v.1.15,2013-07-28 02:00:00,
2013-07-27 22:06:00,65.4,63.6,29.90,South,184,2.0,9.0,94,0.00,,,0.15,Wunderground v.1.15,2013-07-28 02:06:00,
2013-07-27 22:12:00,65.4,63.6,29.90,South,178,1.0,9.0,94,0.00,,,0.15,Wunderground v.1.15,2013-07-28 02:12:00,
2013-07-27 22:18:00,65.4,63.6,29.89,South,179,1.0,9.0,94,0.00,,,0.15,Wunderground v.1.15,2013-07-28 02:18:00,
2013-07-27 22:23:00,65.4,63.6,29.90,South,178,1.0,9.0,94,0.00,,,0.15,Wunderground v.1.15,2013-07-28 02:23:00,
2013-07-27 22:29:00,65.4,63.6,29.90,South,175,1.0,9.0,94,0.00,,,0.15,Wunderground v.1.15,2013-07-28 02:29:00,
2013-07-27 22:34:00,65.4,63.6,29.90,SSE,167,1.0,9.0,94,0.00,,,0.15,Wunderground v.1.15,2013-07-28 02:34:00,
2013-07-27 22:40:00,65.5,63.7,29.90,WNW,284,2.0,3.0,94,0.86,,,0.24,Wunderground v.1.15,2013-07-28 02:40:00,
2013-07-27 22:45:00,65.4,63.6,29.90,SSE,166,3.0,9.0,94,0.10,,,0.24,Wunderground v.1.15,2013-07-28 02:45:00,
2013-07-27 22:51:00,65.3,63.5,29.90,SW,214,3.0,9.0,94,0.13,,,0.26,Wunderground v.1.15,2013-07-28 02:51:00,
2013-07-27 22:57:00,65.2,63.7,29.90,SW,214,1.0,9.0,95,0.18,,,0.28,Wunderground v.1.15,2013-07-28 02:57:00,
2013-07-27 23:03:00,65.0,63.5,29.90,SW,214,0.0,9.0,95,0.07,,,0.28,Wunderground v.1.15,2013-07-28 03:03:00,
2013-07-27 23:08:00,64.9,63.4,29.90,SW,214,0.0,9.0,95,0.04,,,0.28,Wunderground v.1.15,2013-07-28 03:08:00,
2013-07-27 23:13:00,64.7,63.2,29.90,SW,214,0.0,9.0,95,0.00,,,0.28,Wunderground v.1.15,2013-07-28 03:13:00,
2013-07-27 23:18:00,64.5,63.0,29.90,SW,214,0.0,9.0,95,0.00,,,0.28,Wunderground v.1.15,2013-07-28 03:18:00,
2013-07-27 23:23:00,64.4,62.9,29.90,SW,214,0.0,9.0,95,0.00,,,0.28,Wunderground v.1.15,2013-07-28 03:23:00,
2013-07-27 23:28:00,64.2,62.7,29.91,SW,214,0.0,9.0,95,0.00,,,0.28,Wunderground v.1.15,2013-07-28 03:28:00,
2013-07-27 23:33:00,64.1,62.6,29.91,SW,214,0.0,9.0,95,0.00,,,0.28,Wunderground v.1.15,2013-07-28 03:33:00,
2013-07-27 23:38:00,63.9,62.4,29.91,SW,214,0.0,9.0,95,0.00,,,0.28,Wunderground v.1.15,2013-07-28 03:38:00,
2013-07-27 23:44:00,63.8,62.6,29.91,WSW,243,1.0,9.0,96,0.00,,,0.28,Wunderground v.1.15,2013-07-28 03:44:00,
2013-07-27 23:50:00,63.7,62.5,29.91,West,264,2.0,9.0,96,0.00,,,0.28,Wunderground v.1.15,2013-07-28 03:50:00,
2013-07-27 23:57:00,63.4,61.9,29.91,WSW,255,2.0,9.0,95,0.00,,,0.00,Wunderground v.1.15,2013-07-28 03:57:00,